Hourly Data Report for December 31, 2011

HALIFAX STANFIELD INT'L A
NOVA SCOTIA

44°52'48.060" N
63°30'00.050" W
145.40 m
8202250
71395
YHZ

Download Data

Hourly Data (December 2011)
Hourly Data Report for December 31, 2011
TIME
LST
Temp Definition
°C
Dew Point Definition
°C
Rel Hum Definition
%
Precip. Amount Definition
mm

Wind Dir Definition
10's deg

Wind Spd Definition
km/h
Visibility Definition
km
Stn Press Definition
kPa
Hmdx Definition


Wind Chill Definition


Weather Definition


00:00 -2.2 -8.0 64   25 6 24.1 100.73   -5 Cloudy
01:00 -2.9 -8.2 67   9 4 24.1 100.70   -4 Mostly Cloudy
02:00 -4.1 -8.8 70   12 9 24.1 100.72   -8 Mainly Clear
03:00 -4.0 -8.0 74   14 6 24.1 100.82   -7 Cloudy
04:00 -3.8 -7.8 74   13 9 24.1 100.82   -8 Mostly Cloudy
05:00 -3.7 -7.7 74   12 9 24.1 100.82   -7 Cloudy
06:00 -3.3 -6.8 77   12 13 24.1 100.81   -8 Snow Showers
07:00 -2.8 -6.3 77   13 19 24.1 100.77   -9 Cloudy
08:00 -2.1 -5.2 79   12 22 24.1 100.74   -8 Cloudy
09:00 -1.0 -3.7 82   13 19 24.1 100.72   -6 Cloudy
10:00 1.4 -1.5 81   14 13 24.1 100.74     Cloudy
11:00 2.4 0.7 89   13 19 24.1 100.63     Rain
12:00 3.5 2.4 92   12 26 24.1 100.42     Rain
13:00 4.1 3.3 95   13 33 24.1 100.21     Rain
14:00 4.3 4.0 98   13 28 2.4 100.08     Rain, Fog
15:00 4.7 4.5 99   12 26 3.2 99.99     Rain, Fog
16:00 5.7 5.7 100   13 17 4.8 99.91     Rain, Fog
17:00 6.9 6.9 100   14 19 1.0 99.78     Rain, Fog
18:00 7.5 7.5 100   13 19 2.0 99.61     Moderate Rain, Fog
19:00 8.3 8.2 99   13 28 2.4 99.37     Moderate Rain, Fog
20:00 9.5 9.5 100   16 28 4.8 99.23     Rain, Fog
21:00 8.8 8.8 100   16 28 2.4 99.09     Rain, Fog
22:00 8.7 8.7 100   16 19 2.0 98.95     Rain, Fog
23:00 8.7 8.7 100   18 13 2.0 98.84     Rain, Fog

Notes on Data Quality.

Legend

  • E = Estimated
  • M = Missing
  • NA = Not Available*
  • [empty] = Indicates an unobserved value
Date modified: